Location: Unspecified
(52.0000°N, 4.4000°E)
Time: 16:18:16
(UTC+00:00)

Cosmos 1766 - Pass Details

Date: 14 May 2025
Orbit: 443 x 457 km, 82.5° (Epoch: 16 June)

Event Time Altitude Azimuth Distance (km) Brightness Sun altitude
Rises 22:46:36 0° 354° (N) 2,474 8.3 -18.2°
Reaches altitude 10° 22:48:46 10° 1° (N) 1,593 6.9 -18.3°
Maximum altitude 22:52:05 43° 74° (ENE) 649 3.7 -18.4°
Enters shadow 22:52:45 38° 106° (ESE) 708 3.6 -18.4°
